User: anonymous   Login
Location: Unspecified
(0.0000°N, 0.0000°E)
Time: 06:17:33
(UTC+00:00)
Language:

WGS F2 (USA 204) - Orbit

View from above orbital plane
View from above orbital plane
View from above satellite
View from above satellite

Ground track
Ground track

The orbit data is extracted from the following two-line orbital elements,

1 34713U 09017A   16159.79789789 0.00000000  00000-0  00000-0 0    04
2 34713   0.0330 243.8279 0005000  61.7973 298.4838  1.00270000    01
Epoch (UTC): 07 June 2016 19:08:58
Eccentricity: 0.0005000
inclination: 0.0330°
perigee height: 35765 km
apogee height: 35808 km
right ascension of ascending node: 243.8279°
argument of perigee: 61.7973°
revolutions per day: 1.00270000
mean anomaly at epoch: 298.4838°
orbit number at epoch: 0

The dashed part of the orbit path shows where the satellite is in the earth's shadow,  

DLR